ONEWEB-0035, 45143

Orbit data source: Space-Track

ONEWEB-0035, 45143 is a payload satellite owned by One Web (UK) in LEO that was launched on Thu, 06 Feb 2020 UTC via a SOYUZ-2-1B launch vehicle from the Tyuratam Missile And Space Complex (TTMTR). Payload-class satellites include a variety of spacecraft equipped with specific instruments for various scientific and technological missions. These include communications satellites like Starlink; space stations such as the ISS; scientific satellites like the Hubble; Earth observation satellites from companies like Planet Labs, Umbra, and HawkEye 360; GPS; miniature CubeSats for education and research; and military/defense satellites.

Loading next visibility...
Identifier
45143, 2020-008N
Orbit
LEO
Country
Flag of UKUK
Related business
Manufacturer
One Web
Mission
Operational Commercial Communications
Bus & Motor
ARROW, Unknown motor
Mass
148 kg wet, ~140 kg dry
Launch date (UTC)
2020-02-06 (6 years ago)
Launch vehicle
SOYUZ-2-1B
Launch site
Tyuratam Missile And Space Complex (TTMTR)
Object type
Payload
Rocket body
Debris
Shape & HBR
Trap Box + 2 Pan, 2.5 m
Radar Cross Section
2.957 m², Large (>1 m²)

Expand to show TLE details & history
Last TLE update: 13 hours ago

TLE from 13 hours ago
0 ONEWEB-0035
1 45143U 20008N   25259.57097761 -.00000460  00000-0 -13528-2 0  9995
2 45143  87.8732  90.8528 0001594  90.4340 269.6970 13.10375797272109
Epoch: 2025-09-16T13:42Z
TLE epoch observation values (Epoch: 2025-09-16T13:42:12.465Z)
Latitude
-0.00002°
Longitude
-110.45851°
Altitude
1,224.6 km
Speed
7.242 km/s
True Right ascension
06h 03m 24s
True Declination
0° 00' 00"
Sunlit
Object was in daylight at epoch
Visualization orbit readout
Latitude
Unknown
Longitude
Unknown
Altitude
Unknown
Speed
Unknown
Apparent Right ascension
Unknown
Apparent Declination
Unknown
Sunlit
N/A
Visualization observer readout
Local Sidereal Time
19:47:30
Azimuth
Unknown
Elevation
Unknown
Doppler factor
Unknown
Orbital elements
Apogee altitude
1,220.037 km
Perigee altitude
1,217.615 km
Semi-major axis
7,596.963 km
Eccentricity
0.00016
Inclination
87.8732°
RAAN
90.8528°
Arg. of periapsis
90.434°
True anomaly
269.67873°
Mean anomaly
269.697°
Eccentric anomaly
269.68787°
Mean motion
3.27781 °/min
Orbital period
109.83 mins
BSTAR
-0.0013528
Loading maneuver chart data...
Computing Atmospheric mass density...
Loading historical data...
Loading historical data...
Loading historical data...
Loading historical data...
Loading historical data...
Loading historical data...
Loading historical data...

Documentation

Showing up to 5 results
|